Menominee, MI

4:20 AM CST on December 16, 2017 (GMT -0600)
Menominee-Marinette Twin County

Weather History for KMNM - February, 2012

Change the Weather History Date:

Friday, February 24, 2012

  Actual Average Record
Temperature  
Mean Temperature 30 °F -  
Max Temperature 33 °F 34 °F 52 °F (1958)
Min Temperature 28 °F 17 °F -10 °F (1950)
Degree Days  
Heating Degree Days 34    
Moisture  
Dew Point 22 °F    
Average Humidity 73    
Maximum Humidity 93    
Minimum Humidity 52    
Precipitation  
Precipitation 0.00 in - - ()
Sea Level Pressure  
Sea Level Pressure 29.64 in    
Wind  
Wind Speed 9 mph (North)    
Max Wind Speed 14 mph    
Max Gust Speed 21 mph    
Visibility 10 miles    
Events      
Averages and records for this station are not official NWS values.
T = Trace of Precipitation, MM = Missing Value Source: NWS Daily Summary

Daily Weather History Graph

Daily Weather History Graph

Search for Another Location

Airport or City:

Trip Planner

Search our weather history database for the weather conditions in past years. The results will help you decide how hot, cold, wet, or windy it might be!

Date:

Astronomy

Feb. 24, 2012 Rise Set
Actual Time 6:37 AM CST 5:30 PM CST
Civil Twilight 6:08 AM CST 6:00 PM CST
Nautical Twilight 5:34 AM CST 6:34 PM CST
Astronomical Twilight 5:00 AM CST 7:08 PM CST
Moon 7:22 AM CST (2/24) 8:45 PM CST (2/24)
Length of Visible Light 11h 51m
Length of Day
10h 52m
Waxing Crescent, 8% of the Moon is Illuminated
Feb 24
Waxing Crescent
Feb 29
First Quarter
Mar 8
Full
Mar 14
Last Quarter
Mar 22
New

Hourly Weather History & Observations

Time (CST) Temp. Windchill Dew Point Humidity Pressure Visibility Wind Dir Wind Speed Gust Speed Precip Events Conditions
12:15 AM 28.4 °F 22.2 °F 26.6 °F 93% 29.64 in 10.0 mi NNE 5.8 mph - N/A   Clear
12:35 AM 28.4 °F 20.4 °F 26.6 °F 93% 29.63 in 10.0 mi NNE 8.1 mph - N/A   Mostly Cloudy
12:55 AM 28.4 °F 19.7 °F 26.6 °F 93% 29.62 in 10.0 mi NE 9.2 mph - N/A   Mostly Cloudy
1:15 AM 28.4 °F 20.4 °F 26.6 °F 93% 29.61 in 10.0 mi NE 8.1 mph - N/A   Mostly Cloudy
1:35 AM 28.4 °F 19.7 °F 26.6 °F 93% 29.61 in 10.0 mi NE 9.2 mph - N/A   Mostly Cloudy
1:55 AM 30.2 °F 21.9 °F 26.6 °F 86% 29.62 in 10.0 mi NE 9.2 mph - N/A   Overcast
2:15 AM 30.2 °F 21.3 °F 26.6 °F 86% 29.61 in 10.0 mi NE 10.4 mph - N/A   Overcast
2:35 AM 30.2 °F 21.9 °F 26.6 °F 86% 29.61 in 10.0 mi NNE 9.2 mph - N/A   Overcast
2:55 AM 30.2 °F 21.3 °F 26.6 °F 86% 29.60 in 10.0 mi NE 10.4 mph - N/A   Overcast
3:15 AM 30.2 °F 21.9 °F 26.6 °F 86% 29.60 in 10.0 mi NNE 9.2 mph - N/A   Overcast
3:35 AM 30.2 °F 22.6 °F 26.6 °F 86% 29.59 in 10.0 mi NNE 8.1 mph - N/A   Overcast
3:55 AM 30.2 °F 21.3 °F 24.8 °F 80% 29.59 in 10.0 mi NNE 10.4 mph - N/A   Overcast
4:15 AM 30.2 °F 21.3 °F 24.8 °F 80% 29.59 in 10.0 mi NNE 10.4 mph - N/A   Overcast
4:35 AM 28.4 °F 19.1 °F 24.8 °F 86% 29.59 in 10.0 mi NNE 10.4 mph - N/A   Overcast
4:55 AM 28.4 °F 19.1 °F 24.8 °F 86% 29.59 in 10.0 mi NNE 10.4 mph - N/A   Overcast
5:15 AM 28.4 °F 21.2 °F 24.8 °F 86% 29.59 in 10.0 mi NNE 6.9 mph - N/A   Overcast
5:35 AM 28.4 °F 21.2 °F 23.0 °F 80% 29.60 in 10.0 mi NNE 6.9 mph - N/A   Overcast
5:55 AM 28.4 °F 20.4 °F 24.8 °F 86% 29.60 in 10.0 mi NNE 8.1 mph - N/A   Overcast
6:15 AM 28.4 °F 21.2 °F 24.8 °F 86% 29.60 in 10.0 mi NNE 6.9 mph - N/A   Overcast
6:35 AM 28.4 °F 21.2 °F 23.0 °F 80% 29.60 in 10.0 mi NNE 6.9 mph - N/A   Overcast
6:55 AM 28.4 °F 19.7 °F 24.8 °F 86% 29.61 in 4.0 mi North 9.2 mph - N/A   Overcast
7:15 AM 28.4 °F 20.4 °F 24.8 °F 86% 29.61 in 5.0 mi North 8.1 mph - N/A   Overcast
7:55 AM 28.4 °F 21.2 °F 26.6 °F 93% 29.62 in 5.0 mi North 6.9 mph - N/A   Overcast
8:55 AM 28.4 °F 20.4 °F 26.6 °F 93% 29.61 in 8.0 mi North 8.1 mph - N/A   Mostly Cloudy
9:15 AM 28.4 °F 21.2 °F 26.6 °F 93% 29.61 in 6.0 mi North 6.9 mph - N/A   Overcast
9:35 AM 30.2 °F 21.3 °F 26.6 °F 86% 29.61 in 10.0 mi North 10.4 mph - N/A   Overcast
9:55 AM 30.2 °F 20.8 °F 24.8 °F 80% 29.61 in 10.0 mi North 11.5 mph - N/A   Overcast
10:15 AM 30.2 °F 20.8 °F 24.8 °F 80% 29.61 in 10.0 mi North 11.5 mph 17.3 mph N/A   Overcast
10:35 AM 30.2 °F 21.3 °F 23.0 °F 75% 29.61 in 10.0 mi North 10.4 mph - N/A   Overcast
10:55 AM 30.2 °F 20.2 °F 21.2 °F 69% 29.61 in 10.0 mi NNW 12.7 mph - N/A   Overcast
11:15 AM 32.0 °F 24.2 °F 21.2 °F 64% 29.61 in 10.0 mi NNW 9.2 mph - N/A   Overcast
11:35 AM 32.0 °F 24.2 °F 21.2 °F 64% 29.61 in 10.0 mi North 9.2 mph 17.3 mph N/A   Overcast
11:55 AM 32.0 °F 22.1 °F 19.4 °F 60% 29.61 in 10.0 mi NNW 13.8 mph 19.6 mph N/A   Overcast
12:15 PM 32.0 °F 23.6 °F 17.6 °F 55% 29.61 in 10.0 mi North 10.4 mph 16.1 mph N/A   Overcast
12:35 PM 32.0 °F 24.8 °F 17.6 °F 55% 29.61 in 10.0 mi NNW 8.1 mph - N/A   Overcast
12:55 PM 33.8 °F 24.8 °F 19.4 °F 56% 29.61 in 10.0 mi NNW 12.7 mph 19.6 mph N/A   Overcast
1:15 PM 33.8 °F 25.3 °F 19.4 °F 56% 29.62 in 10.0 mi North 11.5 mph 19.6 mph N/A   Overcast
1:35 PM 32.0 °F 23.0 °F 19.4 °F 60% 29.62 in 10.0 mi North 11.5 mph 20.7 mph N/A   Overcast
1:55 PM 33.8 °F 26.4 °F 19.4 °F 56% 29.63 in 10.0 mi NNW 9.2 mph - N/A   Overcast
2:15 PM 33.8 °F 25.3 °F 19.4 °F 56% 29.63 in 10.0 mi NNW 11.5 mph - N/A   Overcast
2:35 PM 33.8 °F 27.7 °F 19.4 °F 56% 29.64 in 10.0 mi NNW 6.9 mph - N/A   Overcast
2:55 PM 33.8 °F 26.4 °F 19.4 °F 56% 29.65 in 10.0 mi North 9.2 mph 17.3 mph N/A   Overcast
3:15 PM 33.8 °F 25.3 °F 19.4 °F 56% 29.66 in 9.0 mi NW 11.5 mph 16.1 mph N/A   Overcast
3:35 PM 33.8 °F 26.4 °F 21.2 °F 60% 29.67 in 10.0 mi North 9.2 mph - N/A   Overcast
3:55 PM 33.8 °F 27.0 °F 19.4 °F 56% 29.67 in 10.0 mi NW 8.1 mph 16.1 mph N/A   Overcast
4:15 PM 33.8 °F 25.3 °F 17.6 °F 52% 29.68 in 10.0 mi NNW 11.5 mph - N/A   Overcast
4:35 PM 33.8 °F 26.4 °F 17.6 °F 52% 29.69 in 10.0 mi NNW 9.2 mph 16.1 mph N/A   Overcast
4:55 PM 33.8 °F 27.7 °F 17.6 °F 52% 29.70 in 10.0 mi NNW 6.9 mph - N/A   Overcast
5:15 PM 33.8 °F 27.0 °F 17.6 °F 52% 29.70 in 10.0 mi NNW 8.1 mph - N/A   Overcast
5:35 PM 32.0 °F 27.5 °F 17.6 °F 55% 29.71 in 10.0 mi NNW 4.6 mph - N/A   Overcast
5:55 PM 32.0 °F 25.6 °F 19.4 °F 60% 29.72 in 10.0 mi NNW 6.9 mph - N/A   Overcast
6:15 PM 32.0 °F 27.5 °F 17.6 °F 55% 29.73 in 10.0 mi NNW 4.6 mph - N/A   Overcast
6:35 PM 32.0 °F 28.7 °F 19.4 °F 60% 29.74 in 10.0 mi NNW 3.5 mph - N/A   Overcast
6:55 PM 32.0 °F 24.2 °F 19.4 °F 60% 29.74 in 10.0 mi North 9.2 mph - N/A   Overcast
7:15 PM 30.2 °F 22.6 °F 21.2 °F 69% 29.75 in 10.0 mi NNW 8.1 mph - N/A   Mostly Cloudy
7:35 PM 30.2 °F 21.9 °F 21.2 °F 69% 29.75 in 10.0 mi NNW 9.2 mph - N/A   Overcast
7:55 PM 30.2 °F 23.4 °F 21.2 °F 69% 29.76 in 10.0 mi NNW 6.9 mph - N/A   Overcast
8:15 PM 30.2 °F 24.3 °F 21.2 °F 69% 29.76 in 10.0 mi NW 5.8 mph - N/A   Overcast
8:35 PM 30.2 °F 21.3 °F 21.2 °F 69% 29.76 in 10.0 mi NNW 10.4 mph - N/A   Overcast
8:55 PM 30.2 °F 21.9 °F 17.6 °F 60% 29.77 in 10.0 mi NNW 9.2 mph - N/A   Overcast
9:15 PM 30.2 °F 20.2 °F 15.8 °F 55% 29.78 in 10.0 mi NNW 12.7 mph 17.3 mph N/A   Overcast
9:35 PM 28.4 °F 17.5 °F 15.8 °F 59% 29.78 in 10.0 mi NNW 13.8 mph 20.7 mph N/A   Overcast
9:55 PM 28.4 °F 19.7 °F 15.8 °F 59% 29.79 in 10.0 mi NNW 9.2 mph - N/A   Overcast
10:15 PM 28.4 °F 18.5 °F 14.0 °F 55% 29.79 in 10.0 mi NNW 11.5 mph 16.1 mph N/A   Overcast
10:55 PM 26.6 °F 16.2 °F 15.8 °F 64% 29.81 in 10.0 mi NNW 11.5 mph 21.9 mph N/A   Overcast
11:15 PM 26.6 °F 19.1 °F 17.6 °F 69% 29.81 in 10.0 mi NNW 6.9 mph - N/A   Overcast
11:35 PM 26.6 °F 17.5 °F 17.6 °F 69% 29.81 in 10.0 mi NNW 9.2 mph - N/A   Overcast
11:55 PM 26.6 °F 21.2 °F 17.6 °F 69% 29.81 in 10.0 mi NW 4.6 mph - N/A   Overcast